STARLINK-35314, 65837

Orbit data source: Space-Track

STARLINK-35314, 65837 is a payload satellite owned by SpaceX/Seattle (US) in LEO that was launched on Mon, 29 Sep 2025 UTC via an FALCON 9 launch vehicle from the Air Force Western Test Range (AFWTR). Payload-class satellites include a variety of spacecraft equipped with specific instruments for various scientific and technological missions. These include communications satellites like Starlink; space stations such as the ISS; scientific satellites like the Hubble; Earth observation satellites from companies like Planet Labs, Umbra, and HawkEye 360; GPS; miniature CubeSats for education and research; and military/defense satellites.

Loading next visibility...
Identifier
65837, 2025-221Q
Orbit
LEO
Country
Flag of USUS
Related business
Manufacturer
SpaceX/Seattle
Mission
Operational Commercial Communications
Bus & Motor
STARLINK V2MO, Unknown motor
Mass
575 kg wet, ~530 kg dry
Launch date (UTC)
2025-09-29 (2 months ago)
Launch vehicle
FALCON 9
Launch site
Air Force Western Test Range (AFWTR)
Object type
Payload
Rocket body
Debris
Shape & HBR
Box + 2 Pan, 17.7 m
Radar Cross Section
36.964 m²

Expand to show TLE details & history
Last TLE update: 16 hours ago

TLE from 16 hours ago
0 STARLINK-35314
1 65837U 25221Q   25340.49973739  .00048694  00000-0  16438-2 0  9991
2 65837  53.1588 161.3420 0001962  84.6741 275.4484 15.30230691 10461
Epoch: 2025-12-06T11:59Z
TLE epoch observation values (Epoch: 2025-12-06T11:59:37.310Z)
Latitude
0.00001°
Longitude
-94.09004°
Altitude
475.896 km
Speed
7.629 km/s
True Right ascension
10h 45m 22s
True Declination
0° 00' 00"
Sunlit
Object was in daylight at epoch
Visualization orbit readout
Latitude
Unknown
Longitude
Unknown
Altitude
Unknown
Speed
Unknown
Apparent Right ascension
Unknown
Apparent Declination
Unknown
Sunlit
N/A
Visualization observer readout
Local Sidereal Time
02:14:41
Azimuth
Unknown
Elevation
Unknown
Doppler factor
Unknown
Orbital elements
Apogee altitude
476.725 km
Perigee altitude
474.035 km
Semi-major axis
6,853.517 km
Eccentricity
0.0002
Inclination
53.1588°
RAAN
161.342°
Arg. of periapsis
84.6741°
True anomaly
275.42602°
Mean anomaly
275.4484°
Eccentric anomaly
275.43721°
Mean motion
3.82537 °/min
Orbital period
94.11 mins
BSTAR
0.0016438
Loading maneuver chart data...
Computing Atmospheric mass density...
Loading historical data...
Loading historical data...
Loading historical data...
Loading historical data...
Loading historical data...
Loading historical data...
Loading historical data...

Documentation

Showing up to 5 results
|